RH
53 63 62 76 78 90 88 90 90 88 85 83 89 71 67 70 71 72 65 64 56 39 7 5 7 9 10 9 8 7 7 7 7 8 8 9 10 11 11 11 11 11 12
54 67 71 72 81 83 98 100 95 92 84 94 96 88 87 82 79 79 81 65 62 32 6 6 10 11 9 8 7 8 8 8 9 10 11 11 12 14 14 13 13 13 14
67 67 73 76 79 78 87 97 99 100 98 83 86 96 89 89 83 81 87 77 64 24 6 8 12 10 8 8 8 9 10 10 10 11 10 10 10 10 11 13 15 18 20
73 72 69 71 80 77 83 93 83 88 96 96 99 98 94 91 83 90 94 83 66 19 8 10 14 10 9 10 11 11 10 9 9 9 9 9 9 9 10 9 9 10 14
75 77 69 66 91 94 86 83 80 75 92 97 98 97 97 99 92 98 97 89 67 17 8 12 14 11 11 12 12 10 9 9 9 9 9 9 9 9 9 9 9 10 10
46 65 63 65 87 91 96 98 100 80 77 82 96 95 97 97 92 93 96 95 93 13 9 14 14 12 13 13 11 10 10 11 12 12 12 12 12 11 11 10 9 8 9
57 65 71 69 88 97 100 98 100 96 85 93 100 95 97 97 95 95 93 91 32 14 10 15 15 14 14 13 10 11 12 13 14 14 14 14 13 12 12 11 11 10 8
83 77 75 64 84 98 98 98 97 95 100 100 100 100 95 97 94 96 93 86 15 11 12 17 16 15 15 12 10 12 14 15 15 16 16 17 17 17 16 14 12 11 11
95 88 90 96 96 94 96 96 96 97 97 96 100 100 98 98 98 96 94 78 17 18 15 22 18 15 16 10 10 12 14 16 17 18 18 18 19 19 19 19 16 13 11
78 83 89 91 89 100 89 99 99 100 97 96 97 99 98 97 93 96 96 93 68 14 19 24 19 13 15 9 10 12 15 17 18 20 20 20 21 22 22 21 20 19 13
70 75 68 66 78 79 73 96 96 98 98 96 98 97 96 95 96 95 98 90 20 18 22 27 19 10 11 8 10 12 14 17 19 20 21 22 23 24 24 23 22 20 18
69 63 65 72 74 74 74 71 94 100 99 97 96 95 95 94 95 95 96 95 33 29 24 27 20 9 8 8 10 13 13 16 19 21 23 24 24 24 24 23 22 21 21
66 66 65 59 56 58 58 54 77 100 99 100 99 97 96 97 97 96 96 95 83 22 25 29 26 12 7 7 9 12 13 14 17 20 22 22 22 22 22 21 21 21 22
82 76 70 66 61 50 49 54 78 97 98 100 98 95 96 96 95 95 96 96 53 16 22 27 28 22 10 7 8 10 14 14 14 16 18 18 19 19 20 21 22 22 24
90 86 83 80 72 63 55 59 83 94 95 99 99 95 95 93 96 96 94 35 15 17 21 24 26 27 17 10 9 10 13 14 14 15 16 17 17 18 19 21 23 24 26
68 69 75 86 90 80 67 73 86 96 97 98 97 96 93 93 85 87 66 30 15 13 14 17 22 27 27 19 14 11 12 13 15 16 16 16 17 19 20 22 23 25 27
40 47 54 67 81 95 86 83 97 97 96 96 98 95 96 95 92 79 32 12 10 10 10 14 18 23 26 25 20 15 14 14 15 16 17 18 19 20 21 23 25 29 31
47 47 50 51 84 99 98 97 97 97 96 98 98 99 97 95 86 48 23 16 14 12 10 12 16 22 24 26 24 22 19 17 17 17 18 18 20 22 23 26 29 32 35
50 58 70 72 98 100 99 97 96 97 97 99 99 98 99 96 82 61 47 34 19 16 13 13 15 19 23 25 26 27 26 25 24 23 23 23 24 27 29 32 34 37 37
66 74 90 90 99 99 98 97 96 96 97 97 96 96 96 94 90 78 70 60 52 41 28 21 16 16 16 18 19 21 24 26 28 28 29 30 31 33 36 38 41 42 41
68 78 92 98 95 97 97 97 98 97 96 96 96 96 96 96 96 95 95 94 94 79 45 40 33 26 21 18 17 17 19 21 23 24 26 29 33 36 42 46 49 48 43
70 78 88 97 97 97 98 97 97 96 96 96 96 96 96 96 96 96 96 96 96 96 95 95 95 96 96 96 96 95 95 85 63 46 40 37 40 45 52 59 82 58 48
81 87 94 96 96 96 96 96 96 96 96 96 95 95 95 96 96 96 95 96 96 96 97 96 96 96 97 97 96 96 95 94 94 94 87 67 53 46 49 53 51 53 63
91 94 97 98 96 96 96 96 96 96 96 96 96 96 95 94 94 95 97 97 97 96 98 97 98 97 96 97 99 98 98 98 89 96 97 96 93 89 90 92 96 99 100
86 87 87 87 89 90 91 91 92 93 94 94 94 96 97 99 100 100 99 99 99 99 99 98 98 98 98 98 97 98 99 98 98 94 94 95 97 99 100 100 100 100 100
85 83 81 79 77 76 77 79 80 81 82 84 86 88 89 91 93 95 96 96 98 99 100 100 100 100 100 99 99 99 100 100 100 100 100 100 100 100 100 100 100 100 100
Wind_Speed
13 11 9 12 9 8 12 17 20 25 24 25 25 20 22 20 19 18 17 16 17 16 14 12 13 12 11 10 10 10 9 9 7 5 4 4 4 4 5 5 6 6 7
16 15 13 15 15 12 9 12 21 25 26 27 27 23 25 20 22 20 15 18 16 15 13 14 14 13 12 11 11 11 9 9 7 5 4 4 4 4 5 5 5 6 7
21 21 18 19 18 17 21 20 17 22 29 29 30 28 26 23 26 21 17 18 17 15 14 16 15 14 14 13 12 11 10 9 6 6 5 4 5 5 5 6 6 6 7
28 28 26 23 21 21 20 26 30 32 29 32 32 32 29 26 25 22 19 19 18 16 17 17 17 16 15 15 14 13 11 9 8 7 6 5 5 5 6 6 7 8 9
37 35 31 30 30 28 27 26 28 26 31 29 30 31 32 28 22 22 21 23 20 18 20 20 19 18 17 17 16 14 13 11 9 7 5 5 4 5 6 7 8 9 10
40 36 33 31 34 33 23 28 26 27 29 29 28 31 24 22 24 25 24 25 22 21 22 21 20 20 19 18 17 16 15 12 10 8 6 5 5 6 7 9 11 12 13
39 37 30 26 31 27 24 28 27 25 25 26 23 27 26 23 23 25 27 26 22 24 23 24 23 21 21 20 19 18 16 14 12 10 8 7 7 7 9 10 12 13 14
28 30 31 29 31 32 28 29 26 29 24 23 22 22 26 20 23 25 27 30 24 25 24 25 24 22 22 22 22 20 18 16 15 13 11 9 9 9 10 11 13 14 15
15 18 19 23 24 20 23 26 25 28 24 24 24 25 22 23 24 28 29 28 25 25 25 25 23 23 24 24 23 22 20 19 17 16 14 13 12 12 13 14 15 16 16
12 14 16 18 21 21 24 23 25 13 23 22 22 23 25 26 27 28 29 28 30 26 25 25 23 24 25 25 25 24 23 22 20 19 18 17 16 15 16 16 17 18 19
13 15 16 17 16 19 22 21 14 17 21 26 27 26 27 25 24 24 27 31 29 26 26 24 24 26 27 27 26 26 25 24 23 21 21 20 19 19 19 20 21 21 21
14 14 14 15 17 17 19 20 22 25 26 26 25 24 23 25 25 24 28 34 29 27 26 26 28 28 28 28 28 28 26 26 25 24 23 23 23 23 22 23 24 24 24
15 15 15 15 15 16 17 18 20 19 23 24 24 21 21 24 24 24 27 31 33 27 27 28 29 28 29 29 29 29 28 28 27 27 27 26 26 26 26 26 27 27 27
15 14 16 15 15 15 17 17 18 20 20 18 19 18 18 21 22 24 25 29 25 26 27 28 29 30 29 30 30 29 30 29 28 28 29 29 29 28 29 29 29 29 29
15 15 16 15 15 16 16 16 15 15 16 15 16 18 18 19 18 19 20 21 24 26 29 31 31 31 29 30 30 30 31 30 29 30 31 31 32 32 31 32 32 31 31
16 16 15 15 16 16 16 16 16 16 17 16 16 17 17 18 23 26 26 28 30 30 31 31 31 31 31 31 31 32 32 31 32 33 33 34 34 34 35 35 34 34 34
17 17 17 17 16 16 16 17 16 17 17 17 16 16 17 18 20 21 24 27 29 30 30 31 31 32 31 31 33 34 33 33 36 36 36 36 37 37 38 36 36 36 35
18 18 18 17 17 17 17 18 18 17 17 17 16 17 19 21 22 23 26 30 29 28 29 29 30 31 32 34 35 36 36 37 38 38 39 39 39 39 39 38 38 38 37
18 18 19 17 18 20 21 22 22 21 21 20 20 22 23 23 23 26 29 28 28 27 28 29 30 31 33 35 37 38 39 40 41 42 41 41 41 41 41 39 39 39 40
18 18 17 17 19 22 23 24 25 24 24 23 23 22 23 24 24 25 26 26 27 27 27 29 31 33 34 35 37 39 41 42 43 44 44 43 43 44 43 42 41 40 40
18 17 17 19 17 21 22 23 24 26 25 24 23 23 23 24 25 26 28 29 27 26 26 27 29 31 33 35 37 39 41 41 42 43 44 44 44 44 43 43 41 40 40
16 15 15 15 18 21 23 22 22 23 23 22 22 24 24 23 24 25 27 28 27 28 29 30 32 32 33 35 36 38 39 39 39 38 38 39 41 42 42 42 43 41 39
11 9 8 9 10 11 13 14 14 14 15 16 18 20 21 22 23 23 24 26 27 29 30 31 32 33 33 34 35 36 37 36 36 37 36 36 38 39 39 39 38 37 36
7 5 4 5 5 5 6 8 9 11 12 14 15 17 19 20 22 23 25 26 28 29 29 31 31 32 32 33 34 35 35 34 35 34 32 33 33 33 34 35 36 35 33
4 3 3 3 3 4 5 6 8 9 11 13 15 17 19 21 23 24 26 27 28 29 30 31 31 31 31 32 33 34 34 33 31 29 29 29 29 30 30 29 28 29 31
5 5 5 6 7 8 9 10 12 14 15 17 19 21 22 24 25 27 28 30 30 31 31 32 32 32 31 31 30 29 29 28 28 27 27 27 29 31 31 29 28 32 33
Wind_Direction
322 312 298 265 254 224 233 243 234 223 226 231 237 238 239 244 255 265 271 279 283 281 270 238 224 226 227 229 232 231 225 231 241 244 243 264 287 294 294 306 309 311 312
302 304 299 275 275 278 266 253 247 235 231 234 237 239 247 250 256 257 261 269 274 273 257 231 225 229 232 232 230 225 225 230 239 250 253 268 288 294 295 299 302 303 299
278 285 283 277 272 273 275 267 256 246 240 234 240 241 241 247 250 258 261 263 263 260 245 233 228 228 230 226 226 224 226 233 239 249 258 264 272 285 294 302 302 300 303
265 267 266 269 270 268 262 271 272 254 254 242 239 243 239 236 242 256 259 261 260 252 234 229 227 227 224 223 224 224 224 227 230 238 248 260 273 292 300 301 304 308 308
261 261 261 261 260 257 259 259 269 271 268 256 248 256 241 235 236 251 258 254 248 245 235 223 222 224 222 221 222 223 221 219 221 228 241 262 280 293 301 310 314 312 310
262 256 257 258 254 260 256 253 262 260 264 261 264 270 238 243 248 252 254 251 236 238 233 225 219 220 221 222 222 221 221 217 219 226 237 257 287 305 316 322 324 321 316
257 252 250 251 247 251 251 253 256 260 259 256 267 260 240 240 247 256 258 249 226 233 231 226 219 219 220 221 221 222 222 221 224 230 241 258 281 301 315 321 320 317 313
248 246 249 251 234 236 241 250 258 248 260 266 262 259 262 248 249 253 255 245 223 230 229 228 223 223 222 222 222 223 225 225 230 236 245 256 275 291 303 310 313 314 313
267 250 237 235 234 236 246 252 259 263 248 261 271 260 265 262 258 259 253 232 224 231 229 227 223 225 227 226 225 226 229 231 235 241 249 258 269 281 291 301 305 306 308
264 242 232 232 238 242 246 250 247 276 265 266 264 265 259 258 257 254 249 232 221 226 228 227 224 226 229 229 228 228 231 235 239 244 251 259 267 275 284 291 296 300 302
255 242 249 251 245 239 243 242 238 264 256 263 268 262 253 252 251 248 248 222 221 222 228 227 226 227 228 230 230 232 234 239 243 248 254 260 266 273 280 286 291 295 299
261 261 256 251 250 251 253 256 248 245 254 251 255 253 247 241 239 241 232 224 217 222 226 227 228 229 230 231 234 235 237 242 245 250 255 261 267 273 279 283 287 292 295
262 261 261 261 262 261 258 261 258 243 250 253 254 253 247 242 242 242 236 227 215 223 227 230 234 235 235 237 239 241 241 244 248 253 257 262 266 272 276 280 284 288 292
262 264 261 260 261 260 257 259 248 248 251 255 256 257 251 243 240 238 234 218 215 226 232 235 237 238 238 240 243 247 249 248 250 255 259 263 267 271 274 278 281 284 287
264 267 268 267 265 262 258 257 252 243 247 249 252 255 248 239 236 227 209 215 225 229 232 234 237 239 241 244 246 247 250 253 255 256 259 263 267 270 272 275 277 281 284
273 272 270 268 265 262 256 249 248 245 248 249 252 255 245 225 208 204 206 221 231 235 239 241 242 243 245 248 251 253 254 255 256 258 261 264 267 269 271 273 277 280 283
271 271 271 267 262 256 251 247 243 242 243 247 250 247 234 225 228 234 232 235 237 241 247 247 247 249 250 251 253 255 257 258 258 260 263 265 267 269 272 275 278 280 283
279 280 278 264 252 247 247 239 235 240 244 247 248 238 232 234 232 239 241 243 247 249 253 253 253 252 252 253 254 255 256 258 260 262 263 265 267 270 273 276 278 280 282
277 272 271 269 247 244 241 235 234 236 242 244 242 235 234 236 236 241 246 252 256 256 255 257 256 253 253 254 255 257 259 260 262 263 265 267 270 272 275 277 279 281 282
284 280 270 265 248 249 247 244 243 241 243 242 242 240 240 245 249 251 256 258 259 259 257 258 262 263 263 263 262 262 262 263 264 266 268 269 270 272 274 277 278 279 281
285 283 275 263 261 253 251 246 246 249 249 245 239 237 238 244 251 256 259 261 264 268 268 265 264 264 267 268 269 270 270 269 270 270 270 271 272 273 274 274 276 277 278
287 284 279 271 264 256 254 250 250 250 246 243 241 245 251 259 265 268 268 269 270 268 267 268 269 269 269 270 271 271 272 272 273 273 273 272 270 269 269 270 273 273 275
288 289 292 289 281 268 257 250 243 239 242 247 253 258 263 266 268 271 272 273 273 274 274 275 275 276 276 276 276 276 275 275 273 271 271 269 268 268 268 268 270 271 272
282 287 292 291 281 272 266 262 262 263 266 268 270 271 272 272 273 275 276 276 277 277 277 277 278 278 279 279 279 279 279 278 274 276 274 270 268 267 267 267 268 269 267
262 263 262 265 267 266 265 264 265 266 267 267 268 269 270 272 273 273 273 273 274 274 275 275 276 277 277 276 275 275 276 276 277 275 273 272 270 268 266 267 266 263 263
268 276 281 283 283 282 281 280 280 279 278 278 277 277 277 277 277 277 277 277 277 276 275 276 277 277 277 277 276 274 272 270 268 270 272 271 271 267 264 265 261 259 259